Time,TemperatureF,DewpointF,PressureIn,WindDirection,WindDirectionDegrees,WindSpeedMPH,WindSpeedGustMPH,Humidity,HourlyPrecipIn,Conditions,Clouds,dailyrainin,SoftwareType,DateUTC
2013-01-19 00:00:00,27.6,25.6,29.84,SSE,167,0.0,0.0,92,0.00,,,0.01,Wunderground v.1.15,2013-01-19 06:00:00,
2013-01-19 00:10:00,27.7,25.7,29.85,ESE,119,0.0,0.0,92,0.00,,,0.00,Wunderground v.1.15,2013-01-19 06:10:00,
2013-01-19 00:20:00,27.6,25.6,29.85,ESE,119,0.0,0.0,92,0.00,,,0.00,Wunderground v.1.15,2013-01-19 06:20:00,
2013-01-19 00:30:00,27.6,25.6,29.85,ESE,120,0.0,0.0,92,0.00,,,0.00,Wunderground v.1.15,2013-01-19 06:30:00,
2013-01-19 00:40:00,27.9,25.9,29.85,ESE,122,0.0,0.0,92,0.00,,,0.00,Wunderground v.1.15,2013-01-19 06:40:00,
2013-01-19 00:50:00,28.2,26.2,29.85,South,191,0.0,0.0,92,0.00,,,0.00,Wunderground v.1.15,2013-01-19 06:50:00,
2013-01-19 01:01:00,28.4,26.1,29.84,South,173,1.0,1.0,91,0.00,,,0.00,Wunderground v.1.15,2013-01-19 07:01:00,
2013-01-19 01:10:00,28.5,26.2,29.84,SE,144,1.0,1.0,91,0.00,,,0.00,Wunderground v.1.15,2013-01-19 07:10:00,
2013-01-19 01:20:00,28.4,26.1,29.83,SE,146,0.0,0.0,91,0.00,,,0.00,Wunderground v.1.15,2013-01-19 07:20:00,
2013-01-19 01:30:00,28.2,25.6,29.84,SE,145,0.0,0.0,90,0.00,,,0.00,Wunderground v.1.15,2013-01-19 07:30:00,
2013-01-19 01:40:00,27.8,25.5,29.83,SE,146,0.0,0.0,91,0.00,,,0.00,Wunderground v.1.15,2013-01-19 07:40:00,
2013-01-19 01:50:00,27.5,25.2,29.83,SE,146,0.0,0.0,91,0.00,,,0.00,Wunderground v.1.15,2013-01-19 07:50:00,
2013-01-19 02:01:00,27.3,25.0,29.83,SE,145,0.0,0.0,91,0.00,,,0.00,Wunderground v.1.15,2013-01-19 08:01:00,
2013-01-19 02:10:00,27.0,24.7,29.83,SE,146,0.0,0.0,91,0.00,,,0.00,Wunderground v.1.15,2013-01-19 08:10:00,
2013-01-19 02:20:00,27.1,25.1,29.82,SE,145,0.0,0.0,92,0.00,,,0.00,Wunderground v.1.15,2013-01-19 08:20:00,
2013-01-19 02:30:00,27.2,25.2,29.82,SE,146,0.0,0.0,92,0.00,,,0.00,Wunderground v.1.15,2013-01-19 08:30:00,
2013-01-19 02:40:00,27.4,25.4,29.82,SSE,150,0.0,0.0,92,0.00,,,0.00,Wunderground v.1.15,2013-01-19 08:40:00,
2013-01-19 02:50:00,27.5,25.5,29.81,SE,146,1.0,1.0,92,0.00,,,0.00,Wunderground v.1.15,2013-01-19 08:50:00,
2013-01-19 03:01:00,27.6,25.6,29.80,SE,146,0.0,0.0,92,0.00,,,0.00,Wunderground v.1.15,2013-01-19 09:01:00,
2013-01-19 03:10:00,27.6,25.6,29.81,SE,146,0.0,0.0,92,0.00,,,0.00,Wunderground v.1.15,2013-01-19 09:10:00,
2013-01-19 03:20:00,27.5,25.5,29.81,SW,217,0.0,1.0,92,0.00,,,0.00,Wunderground v.1.15,2013-01-19 09:20:00,
2013-01-19 03:30:00,27.4,25.4,29.81,SW,215,1.0,1.0,92,0.00,,,0.00,Wunderground v.1.15,2013-01-19 09:30:00,
2013-01-19 03:40:00,27.3,25.3,29.80,SSW,192,0.0,1.0,92,0.00,,,0.00,Wunderground v.1.15,2013-01-19 09:40:00,
2013-01-19 03:50:00,27.7,25.7,29.79,SSW,213,1.0,1.0,92,0.00,,,0.00,Wunderground v.1.15,2013-01-19 09:50:00,
2013-01-19 04:00:00,28.3,26.3,29.78,SE,137,1.0,1.0,92,0.00,,,0.00,Wunderground v.1.15,2013-01-19 10:00:00,
2013-01-19 04:10:00,28.3,26.3,29.77,SSE,162,1.0,1.0,92,0.00,,,0.00,Wunderground v.1.15,2013-01-19 10:10:00,
2013-01-19 04:20:00,28.4,26.4,29.77,SSW,195,0.0,1.0,92,0.00,,,0.00,Wunderground v.1.15,2013-01-19 10:20:00,
2013-01-19 04:30:00,28.7,26.7,29.76,SSW,205,1.0,1.0,92,0.00,,,0.00,Wunderground v.1.15,2013-01-19 10:30:00,
2013-01-19 04:40:00,29.2,27.2,29.75,WSW,241,1.0,1.0,92,0.00,,,0.00,Wunderground v.1.15,2013-01-19 10:40:00,
2013-01-19 04:50:00,29.4,27.4,29.75,South,173,1.0,1.0,92,0.00,,,0.00,Wunderground v.1.15,2013-01-19 10:50:00,
2013-01-19 05:01:00,29.6,27.3,29.74,SE,138,1.0,1.0,91,0.00,,,0.00,Wunderground v.1.15,2013-01-19 11:01:00,
2013-01-19 05:10:00,29.8,27.8,29.76,NW,304,1.0,1.0,92,0.00,,,0.00,Wunderground v.1.15,2013-01-19 11:10:00,
2013-01-19 06:50:00,26.9,24.9,29.72,SSE,148,1.0,1.0,92,0.00,,,0.00,Wunderground v.1.15,2013-01-19 12:50:00,
2013-01-19 07:00:00,27.4,25.6,29.74,WNW,291,0.0,0.0,93,0.00,,,0.00,Wunderground v.1.15,2013-01-19 13:00:00,
2013-01-19 07:10:00,27.2,25.4,29.73,SE,127,0.0,1.0,93,0.00,,,0.00,Wunderground v.1.15,2013-01-19 13:10:00,
2013-01-19 07:20:00,27.6,25.8,29.73,West,276,1.0,1.0,93,0.00,,,0.00,Wunderground v.1.15,2013-01-19 13:20:00,
2013-01-19 07:30:00,27.7,25.9,29.74,West,276,0.0,0.0,93,0.00,,,0.00,Wunderground v.1.15,2013-01-19 13:30:00,
2013-01-19 07:40:00,27.6,25.8,29.75,West,276,0.0,0.0,93,0.00,,,0.00,Wunderground v.1.15,2013-01-19 13:40:00,
2013-01-19 07:50:00,27.5,25.7,29.75,ESE,110,0.0,0.0,93,0.00,,,0.00,Wunderground v.1.15,2013-01-19 13:50:00,
2013-01-19 08:00:00,27.5,25.7,29.74,ESE,110,0.0,0.0,93,0.00,,,0.00,Wunderground v.1.15,2013-01-19 14:00:00,
2013-01-19 08:10:00,27.5,25.7,29.74,ESE,114,0.0,1.0,93,0.00,,,0.00,Wunderground v.1.15,2013-01-19 14:10:00,
2013-01-19 08:20:00,28.0,26.5,29.75,SSE,153,0.0,0.0,94,0.00,,,0.00,Wunderground v.1.15,2013-01-19 14:20:00,
2013-01-19 08:30:00,28.4,26.9,29.75,SW,219,0.0,1.0,94,0.00,,,0.00,Wunderground v.1.15,2013-01-19 14:30:00,
2013-01-19 08:40:00,28.9,27.4,29.75,SSE,164,1.0,1.0,94,0.00,,,0.00,Wunderground v.1.15,2013-01-19 14:40:00,
2013-01-19 08:50:00,29.3,27.5,29.75,SW,230,0.0,0.0,93,0.00,,,0.00,Wunderground v.1.15,2013-01-19 14:50:00,
2013-01-19 09:00:00,29.8,28.0,29.75,WSW,240,0.0,0.0,93,0.00,,,0.00,Wunderground v.1.15,2013-01-19 15:00:00,
2013-01-19 09:10:00,30.5,28.5,29.75,SSW,211,0.0,0.0,92,0.00,,,0.00,Wunderground v.1.15,2013-01-19 15:10:00,
2013-01-19 09:20:00,31.3,29.0,29.75,West,259,0.0,0.0,91,0.00,,,0.00,Wunderground v.1.15,2013-01-19 15:20:00,
2013-01-19 09:30:00,32.1,29.5,29.76,NE,38,0.0,0.0,90,0.00,,,0.00,Wunderground v.1.15,2013-01-19 15:30:00,
2013-01-19 09:40:00,32.8,29.6,29.76,WSW,256,1.0,1.0,88,0.00,,,0.00,Wunderground v.1.15,2013-01-19 15:40:00,
2013-01-19 09:50:00,33.4,29.7,29.77,West,269,1.0,1.0,86,0.00,,,0.00,Wunderground v.1.15,2013-01-19 15:50:00,
2013-01-19 10:01:00,34.0,30.0,29.77,WNW,291,2.0,2.0,85,0.00,,,0.00,Wunderground v.1.15,2013-01-19 16:01:00,
2013-01-19 10:10:00,34.3,29.7,29.77,West,271,2.0,3.0,83,0.00,,,0.00,Wunderground v.1.15,2013-01-19 16:10:00,
2013-01-19 10:20:00,34.5,29.9,29.77,WNW,294,1.0,1.0,83,0.00,,,0.00,Wunderground v.1.15,2013-01-19 16:20:00,
2013-01-19 10:30:00,34.9,29.7,29.77,West,265,1.0,1.0,81,0.00,,,0.00,Wunderground v.1.15,2013-01-19 16:30:00,
2013-01-19 10:40:00,35.0,29.8,29.78,NNW,330,2.0,2.0,81,0.00,,,0.00,Wunderground v.1.15,2013-01-19 16:40:00,
2013-01-19 10:50:00,35.1,29.6,29.78,WSW,249,3.0,4.0,80,0.00,,,0.00,Wunderground v.1.15,2013-01-19 16:50:00,
2013-01-19 11:01:00,34.8,29.3,29.79,NNE,24,4.0,4.0,80,0.00,,,0.00,Wunderground v.1.15,2013-01-19 17:01:00,
2013-01-19 11:10:00,34.7,29.2,29.79,WNW,290,3.0,6.0,80,0.00,,,0.00,Wunderground v.1.15,2013-01-19 17:10:00,
2013-01-19 11:30:00,35.3,29.4,29.77,NW,315,4.0,4.0,79,0.00,,,0.00,Wunderground v.1.15,2013-01-19 17:30:00,
2013-01-19 11:40:00,35.4,29.5,29.76,SW,229,2.0,3.0,79,0.00,,,0.00,Wunderground v.1.15,2013-01-19 17:40:00,
2013-01-19 11:50:00,35.5,29.6,29.77,WSW,257,3.0,3.0,79,0.00,,,0.00,Wunderground v.1.15,2013-01-19 17:50:00,
2013-01-19 12:01:00,36.3,30.4,29.77,WNW,290,2.0,4.0,79,0.00,,,0.00,Wunderground v.1.15,2013-01-19 18:01:00,
2013-01-19 12:20:00,36.7,30.2,29.77,WNW,303,4.0,5.0,77,0.00,,,0.00,Wunderground v.1.15,2013-01-19 18:20:00,
2013-01-19 12:30:00,36.5,30.0,29.77,WNW,300,3.0,4.0,77,0.00,,,0.00,Wunderground v.1.15,2013-01-19 18:30:00,
2013-01-19 12:40:00,36.5,30.0,29.77,West,260,3.0,3.0,77,0.00,,,0.00,Wunderground v.1.15,2013-01-19 18:40:00,
2013-01-19 12:50:00,36.9,30.0,29.76,West,277,3.0,3.0,76,0.00,,,0.00,Wunderground v.1.15,2013-01-19 18:50:00,
2013-01-19 13:10:00,37.1,30.2,29.76,NW,313,2.0,3.0,76,0.00,,,0.00,Wunderground v.1.15,2013-01-19 19:10:00,
2013-01-19 13:20:00,37.3,30.4,29.76,West,280,3.0,6.0,76,0.00,,,0.00,Wunderground v.1.15,2013-01-19 19:20:00,
2013-01-19 13:40:00,37.2,30.3,29.76,West,272,3.0,6.0,76,0.00,,,0.00,Wunderground v.1.15,2013-01-19 19:40:00,
2013-01-19 13:50:00,37.1,29.9,29.76,West,259,3.0,3.0,75,0.00,,,0.00,Wunderground v.1.15,2013-01-19 19:50:00,
2013-01-19 14:01:00,37.2,30.0,29.75,SW,225,3.0,3.0,75,0.00,,,0.00,Wunderground v.1.15,2013-01-19 20:01:00,
2013-01-19 14:10:00,37.2,30.0,29.75,West,275,3.0,3.0,75,0.00,,,0.00,Wunderground v.1.15,2013-01-19 20:10:00,
2013-01-19 14:30:00,36.9,29.7,29.76,WNW,287,4.0,4.0,75,0.00,,,0.00,Wunderground v.1.15,2013-01-19 20:30:00,
2013-01-19 14:50:00,34.1,23.6,29.78,WSW,241,6.0,6.0,65,0.00,,,0.00,Wunderground v.1.15,2013-01-19 20:50:00,
2013-01-19 15:10:00,31.0,18.7,29.81,NW,313,5.0,5.0,60,0.00,,,0.00,Wunderground v.1.15,2013-01-19 21:10:00,
2013-01-19 15:30:00,27.5,16.9,29.84,NW,307,8.0,16.0,64,0.00,,,0.00,Wunderground v.1.15,2013-01-19 21:30:00,
2013-01-19 15:40:00,24.6,14.1,29.86,NW,308,11.0,11.0,64,0.00,,,0.00,Wunderground v.1.15,2013-01-19 21:40:00,
2013-01-19 15:50:00,22.5,11.1,29.88,WNW,291,11.0,17.0,61,0.00,,,0.00,Wunderground v.1.15,2013-01-19 21:50:00,
2013-01-19 16:10:00,19.8,9.2,29.90,NNW,327,9.0,9.0,63,0.00,,,0.00,Wunderground v.1.15,2013-01-19 22:10:00,
2013-01-19 16:20:00,19.1,9.6,29.92,North,351,9.0,9.0,66,0.00,,,0.00,Wunderground v.1.15,2013-01-19 22:20:00,
2013-01-19 16:30:00,18.6,8.8,29.92,West,273,6.0,6.0,65,0.00,,,0.00,Wunderground v.1.15,2013-01-19 22:30:00,
2013-01-19 16:40:00,17.8,8.0,29.94,NW,323,4.0,4.0,65,0.00,,,0.00,Wunderground v.1.15,2013-01-19 22:40:00,
2013-01-19 16:50:00,16.4,6.3,29.95,West,273,7.0,7.0,64,0.00,,,0.00,Wunderground v.1.15,2013-01-19 22:50:00,
2013-01-19 17:01:00,15.8,5.8,29.97,WNW,294,7.0,11.0,64,0.00,,,0.00,Wunderground v.1.15,2013-01-19 23:01:00,
2013-01-19 17:10:00,15.2,6.2,29.98,WNW,284,6.0,6.0,67,0.00,,,0.00,Wunderground v.1.15,2013-01-19 23:10:00,
2013-01-19 17:20:00,14.3,7.2,30.00,NW,306,6.0,8.0,73,0.00,,,0.00,Wunderground v.1.15,2013-01-19 23:20:00,
2013-01-19 17:30:00,13.0,4.1,30.00,WNW,300,10.0,10.0,67,0.00,,,0.00,Wunderground v.1.15,2013-01-19 23:30:00,
2013-01-19 17:40:00,12.5,3.3,30.01,WNW,299,10.0,10.0,66,0.00,,,0.00,Wunderground v.1.15,2013-01-19 23:40:00,
2013-01-19 18:10:00,10.7,1.6,30.05,West,277,9.0,11.0,66,0.00,,,0.00,Wunderground v.1.15,2013-01-20 00:10:00,
2013-01-19 18:20:00,10.2,0.4,30.06,WNW,294,9.0,9.0,64,0.00,,,0.00,Wunderground v.1.15,2013-01-20 00:20:00,
2013-01-19 18:30:00,9.6,-0.5,30.07,WSW,248,10.0,10.0,63,0.00,,,0.00,Wunderground v.1.15,2013-01-20 00:30:00,
2013-01-19 18:40:00,9.1,-0.6,30.08,NW,306,8.0,11.0,64,0.00,,,0.00,Wunderground v.1.15,2013-01-20 00:40:00,
2013-01-19 18:50:00,8.4,-1.0,30.10,WNW,284,9.0,10.0,65,0.00,,,0.00,Wunderground v.1.15,2013-01-20 00:50:00,
2013-01-19 19:00:00,7.9,-1.4,30.10,NW,314,8.0,10.0,65,0.00,,,0.00,Wunderground v.1.15,2013-01-20 01:00:00,
2013-01-19 19:10:00,7.4,-2.2,30.11,NW,313,10.0,10.0,64,0.00,,,0.00,Wunderground v.1.15,2013-01-20 01:10:00,
2013-01-19 19:20:00,7.2,-1.8,30.12,WNW,294,9.0,15.0,66,0.00,,,0.00,Wunderground v.1.15,2013-01-20 01:20:00,
2013-01-19 19:30:00,6.3,-2.3,30.13,NW,318,11.0,11.0,67,0.00,,,0.00,Wunderground v.1.15,2013-01-20 01:30:00,
2013-01-19 19:40:00,5.8,-2.8,30.14,WNW,299,10.0,11.0,67,0.00,,,0.00,Wunderground v.1.15,2013-01-20 01:40:00,
2013-01-19 19:50:00,5.0,-2.1,30.15,WNW,292,8.0,8.0,72,0.00,,,0.00,Wunderground v.1.15,2013-01-20 01:50:00,
2013-01-19 20:01:00,4.8,-2.0,30.16,WNW,294,8.0,8.0,73,0.00,,,0.00,Wunderground v.1.15,2013-01-20 02:01:00,
2013-01-19 20:10:00,4.5,-3.1,30.17,NW,313,8.0,8.0,70,0.00,,,0.00,Wunderground v.1.15,2013-01-20 02:10:00,
2013-01-19 20:20:00,4.2,-3.7,30.18,WSW,256,9.0,14.0,69,0.00,,,0.00,Wunderground v.1.15,2013-01-20 02:20:00,
2013-01-19 20:30:00,3.9,-4.0,30.19,NW,310,9.0,9.0,69,0.00,,,0.00,Wunderground v.1.15,2013-01-20 02:30:00,
2013-01-19 20:40:00,3.6,-4.6,30.19,WNW,299,8.0,13.0,68,0.00,,,0.00,Wunderground v.1.15,2013-01-20 02:40:00,
2013-01-19 21:01:00,3.1,-4.5,30.21,NW,321,7.0,7.0,70,0.00,,,0.00,Wunderground v.1.15,2013-01-20 03:01:00,
2013-01-19 21:20:00,2.9,-4.4,30.22,NW,305,5.0,5.0,71,0.00,,,0.00,Wunderground v.1.15,2013-01-20 03:20:00,
2013-01-19 21:31:00,2.7,-4.3,30.22,WNW,299,7.0,7.0,72,0.00,,,0.00,Wunderground v.1.15,2013-01-20 03:31:00,
2013-01-19 21:40:00,2.6,-4.4,30.22,NW,313,6.0,7.0,72,0.00,,,0.00,Wunderground v.1.15,2013-01-20 03:40:00,
2013-01-19 21:50:00,2.4,-4.3,30.23,NW,310,5.0,8.0,73,0.00,,,0.00,Wunderground v.1.15,2013-01-20 03:50:00,
2013-01-19 22:00:00,2.3,-4.4,30.24,West,272,5.0,6.0,73,0.00,,,0.00,Wunderground v.1.15,2013-01-20 04:00:00,
2013-01-19 22:10:00,2.2,-4.8,30.24,NW,309,5.0,5.0,72,0.00,,,0.00,Wunderground v.1.15,2013-01-20 04:10:00,
2013-01-19 22:20:00,2.2,-4.8,30.25,West,280,5.0,5.0,72,0.00,,,0.00,Wunderground v.1.15,2013-01-20 04:20:00,
2013-01-19 22:30:00,2.1,-4.9,30.26,WNW,286,4.0,5.0,72,0.00,,,0.00,Wunderground v.1.15,2013-01-20 04:30:00,
2013-01-19 22:40:00,1.9,-5.1,30.26,West,259,5.0,5.0,72,0.00,,,0.00,Wunderground v.1.15,2013-01-20 04:40:00,
2013-01-19 22:50:00,1.8,-5.2,30.26,WNW,303,5.0,8.0,72,0.00,,,0.00,Wunderground v.1.15,2013-01-20 04:50:00,
2013-01-19 23:01:00,1.7,-5.0,30.26,SE,134,4.0,4.0,73,0.00,,,0.00,Wunderground v.1.15,2013-01-20 05:01:00,
2013-01-19 23:10:00,1.5,-5.4,30.26,WNW,299,5.0,6.0,72,0.00,,,0.00,Wunderground v.1.15,2013-01-20 05:10:00,
2013-01-19 23:20:00,1.4,-5.3,30.26,NW,311,5.0,6.0,73,0.00,,,0.00,Wunderground v.1.15,2013-01-20 05:20:00,
2013-01-19 23:30:00,1.3,-5.3,30.26,NW,315,5.0,8.0,73,0.00,,,0.00,Wunderground v.1.15,2013-01-20 05:30:00,
2013-01-19 23:40:00,1.1,-5.5,30.26,NW,311,5.0,5.0,73,0.00,,,0.00,Wunderground v.1.15,2013-01-20 05:40:00,
2013-01-19 23:50:00,1.0,-5.6,30.26,NW,311,5.0,9.0,73,0.00,,,0.00,Wunderground v.1.15,2013-01-20 05:50:00,